Flag for Canada Weather past 2 weeks in Barrie, Ontario, Canada

Now
77 °F

Light rain. Mostly cloudy.


Feels Like: 79 °F
Forecast: 60 / 79 °F
Wind: 14 mph from Southwest

Location: Borden

Current Time: Jul 7, 2015 at 12:33:16 PM

Latest Report: Jul 7, 2015 at 12:01 PM


Visibility: 8 mi

Pressure: 29.82 "Hg

Humidity: 79%

Dew point: 70 °F

Location of BarrieLocation

Historic Weather in Barrie — Graph

°F

Barrie temperature yesterday

Maximum temperature yesterday: 84 °F (at 2:00 PM)
Minimum temperature yesterday: 54 °F (at 6:00 AM)
Average temperature yesterday: 68 °F

Past Weeks' High & Low Weather Summary

 TemperatureHumidityPressure
High84 °F (Jul 6, 2:00 PM)100% (Jun 22, 10:55 PM)30.13 "Hg (Jun 22, 10:55 PM)
Low37 °F (Jul 3, 5:00 AM)33% (Jun 26, 2:00 PM)29.60 "Hg (Jun 23, 5:00 AM)
Average63 °F82%29.94 "Hg
* Reported Jun 22 11:00 AM — Jul 7 11:00 AM, Barrie, Weather by CustomWeather, © 2015

Note: Actual official high and low records may vary slightly from our data, if they occured in-between our weather recording intervals... More about our weather records

Advertising

Barrie weather history for previous 24 hours

 ConditionsComfort  
Time TempWeatherWind HumidityBarometerVisibility
11:00 AM
Tue, Jul 7
79 °FMostly cloudy.12 mph74%29.82 "Hg9 mi
10:49 AM79 °FPartly sunny.10 mph74%29.83 "Hg9 mi
10:00 AM75 °FMostly cloudy.7 mph78%29.83 "Hg9 mi
9:00 AM73 °FPartly sunny.9 mph78%29.84 "Hg9 mi
8:00 AM68 °FSunny.6 mph88%29.84 "Hg9 mi
7:00 AM64 °FSunny.5 mph94%29.85 "Hg9 mi
6:00 AM63 °FClear.5 mph88%29.86 "Hg9 mi
5:00 AM61 °FClear.3 mph94%29.87 "Hg8 mi
4:00 AM61 °FClear.7 mph94%29.88 "Hg8 mi
3:00 AM61 °FClear.6 mph94%29.89 "Hg7 mi
2:00 AM61 °FClear.6 mph94%29.90 "Hg4 mi
1:00 AM63 °FClear.3 mph94%29.91 "Hg5 mi
12:00 AM63 °FClear.2 mph94%29.92 "Hg6 mi
11:00 PM
Mon, Jul 6
66 °FClear.5 mph88%29.92 "Hg9 mi
10:00 PM68 °FSunny.7 mph83%29.94 "Hg9 mi
9:00 PM73 °FSunny.10 mph69%29.93 "Hg9 mi
8:00 PM77 °FSunny.8 mph61%29.96 "Hg9 mi
7:00 PM79 °FSunny.9 mph58%29.96 "Hg9 mi
6:00 PM82 °FSunny.13 mph51%29.98 "Hg9 mi
5:00 PM84 °FPassing clouds.13 mph45%29.99 "Hg9 mi
4:00 PM84 °FPassing clouds.14 mph43%30.00 "Hg9 mi
3:00 PM82 °FPassing clouds.14 mph51%29.99 "Hg9 mi
2:00 PM84 °FPassing clouds.8 mph48%30.02 "Hg9 mi
1:00 PM82 °FPassing clouds.6 mph48%30.04 "Hg9 mi
12:00 PM81 °FSunny.7 mph58%30.07 "Hg9 mi
Weather by CustomWeather, © 2015

See weather overviewHow to use our weather pages